Weather History for Omaha Millard, NE

Change the Weather History Date:

Tuesday, May 28, 2013

  Actual Average (KOMA) Record (KOMA)
Temperature  
Mean Temperature 72 °F 66 °F  
Max Temperature 81 °F 78 °F 97 °F (1895)
Min Temperature 62 °F 55 °F 35 °F (1947)
Degree Days  
Heating Degree Days 0 2  
Month to date heating degree days 141  
Since 1 July heating degree days 6143  
Cooling Degree Days 6 3  
Month to date cooling degree days 53  
Year to date cooling degree days 69  
Growing Degree Days 22 (Base 50)    
Moisture  
Dew Point 63 °F    
Average Humidity 77    
Maximum Humidity 98    
Minimum Humidity 38    
Precipitation  
Precipitation 0.00 in 0.16 in 2.49 in (1962)
Month to date precipitation 4.26  
Year to date precipitation 10.78  
Snow  
Snow 0.00 in 0.00 in - ()
Month to date snowfall 0.1  
Since 1 July snowfall 26.5  
Snow Depth -    
Sea Level Pressure  
Sea Level Pressure 29.69 in    
Wind  
Wind Speed 2 mph (ESE)    
Max Wind Speed 12 mph    
Max Gust Speed -    
Visibility 9 miles    
Events Fog , Thunderstorm    
T = Trace of Precipitation, MM = Missing Value Source: NWS Daily Summary

Daily Weather History Graph

Daily Weather History Graph

Search for Another Location

Airport:

Trip Planner

Search our weather history database for the weather conditions in past years. The results will help you decide how hot, cold, wet, or windy it might be!

Date:

Astronomy

May. 28, 2013 Rise Set
Actual Time 5:55 AM CDT 8:48 PM CDT
Civil Twilight 5:23 AM CDT 9:20 PM CDT
Nautical Twilight 4:41 AM CDT 10:02 PM CDT
Astronomical Twilight 3:54 AM CDT 10:50 PM CDT
Moon No Moon Rise 9:46 AM CDT (5/28)
Length of Visible Light 15h 57m
Length of Day
14h 52m
Waning Gibbous, 82% of the Moon is Illuminated
May 28
Waning Gibbous
May 31
Last Quarter
Jun 8
New
Jun 16
First Quarter
Jun 23
Full

Hourly Weather History & Observations

Time (CDT) Temp. Heat Index Dew Point Humidity Pressure Visibility Wind Dir Wind Speed Gust Speed Precip Events Conditions
12:15 AM 66.4 °F - 64.4 °F 93% 29.64 in 10.0 mi SE 3.5 mph - N/A   Clear
12:35 AM 66.2 °F - 64.4 °F 94% 29.63 in 10.0 mi Calm Calm - N/A   Clear
12:55 AM 66.0 °F - 64.4 °F 94% 29.67 in 10.0 mi Calm Calm - N/A   Clear
1:15 AM 65.3 °F - 64.0 °F 96% 29.68 in 7.0 mi Calm Calm - N/A   Clear
1:35 AM 65.1 °F - 64.2 °F 97% 29.67 in 7.0 mi Calm Calm - N/A Thunderstorm Thunderstorm
1:55 AM 64.9 °F - 63.9 °F 96% 29.67 in 10.0 mi Calm Calm - N/A   Clear
2:15 AM 65.1 °F - 63.9 °F 96% 29.67 in 10.0 mi Calm Calm - N/A Thunderstorm Clear
2:35 AM 64.4 °F - 63.3 °F 96% 29.67 in 5.0 mi Calm Calm - N/A   Scattered Clouds
2:55 AM 64.0 °F - 63.1 °F 97% 29.67 in 5.0 mi Calm Calm - N/A   Mostly Cloudy
3:15 AM 63.9 °F - 63.1 °F 97% 29.66 in 3.0 mi Calm Calm - N/A   Scattered Clouds
3:35 AM 63.3 °F - 62.8 °F 98% 29.66 in 0.5 mi Calm Calm - N/A Fog Fog
3:55 AM 63.0 °F - 62.4 °F 98% 29.68 in 1.2 mi NW 5.8 mph - N/A   Mist
4:15 AM 63.1 °F - 62.6 °F 98% 29.70 in 7.0 mi NW 6.9 mph - N/A   Clear
4:35 AM 63.7 °F - 63.1 °F 98% 29.70 in 10.0 mi Calm Calm - N/A   Mostly Cloudy
4:55 AM 63.5 °F - 62.8 °F 97% 29.69 in 10.0 mi Calm Calm - N/A   Scattered Clouds
5:15 AM 63.5 °F - 62.8 °F 97% 29.70 in 7.0 mi NW 3.5 mph - N/A   Mostly Cloudy
5:35 AM 63.5 °F - 62.8 °F 97% 29.71 in 7.0 mi Calm Calm - N/A   Overcast
5:55 AM 63.5 °F - 62.6 °F 97% 29.71 in 5.0 mi Calm Calm - N/A   Overcast
6:15 AM 63.1 °F - 62.6 °F 98% 29.69 in 4.0 mi Calm Calm - N/A   Overcast
6:35 AM 63.5 °F - 62.6 °F 97% 29.70 in 10.0 mi NNW 4.6 mph - N/A   Overcast
6:55 AM 63.7 °F - 62.2 °F 95% 29.70 in 10.0 mi NW 8.1 mph - N/A   Overcast
7:15 AM 62.8 °F - 61.0 °F 94% 29.69 in 7.0 mi Calm Calm - N/A   Overcast
7:35 AM 63.5 °F - 61.5 °F 93% 29.70 in 7.0 mi Calm Calm - N/A   Overcast
7:55 AM 64.0 °F - 61.3 °F 91% 29.70 in 7.0 mi Calm Calm - N/A   Overcast
8:15 AM 65.1 °F - 62.2 °F 90% 29.70 in 10.0 mi SE 3.5 mph - N/A   Overcast
8:35 AM 65.3 °F - 62.4 °F 90% 29.69 in 10.0 mi Calm Calm - N/A   Overcast
8:55 AM 66.6 °F - 63.3 °F 89% 29.69 in 10.0 mi SE 4.6 mph - N/A   Overcast
9:15 AM 67.8 °F - 64.0 °F 88% 29.67 in 10.0 mi Calm Calm - N/A   Scattered Clouds
9:35 AM 68.7 °F - 62.8 °F 81% 29.67 in 10.0 mi Calm Calm - N/A   Clear
9:55 AM 69.4 °F - 62.6 °F 79% 29.67 in 10.0 mi Calm Calm - N/A   Clear
10:15 AM 70.0 °F - 63.1 °F 79% 29.68 in 10.0 mi Calm Calm - N/A   Clear
10:35 AM 71.2 °F - 63.7 °F 77% 29.69 in 10.0 mi South 4.6 mph - N/A   Scattered Clouds
10:55 AM 72.0 °F - 64.0 °F 76% 29.70 in 10.0 mi SSE 3.5 mph - N/A   Scattered Clouds
11:15 AM 72.7 °F - 64.6 °F 76% 29.71 in 10.0 mi Calm Calm - N/A   Mostly Cloudy
11:35 AM 72.7 °F - 64.4 °F 75% 29.71 in 10.0 mi SW 3.5 mph - N/A   Overcast
11:55 AM 74.3 °F - 64.8 °F 72% 29.71 in 10.0 mi SSE 3.5 mph - N/A   Mostly Cloudy
12:15 PM 74.3 °F - 63.9 °F 70% 29.71 in 10.0 mi Calm Calm - N/A   Scattered Clouds
12:35 PM 75.4 °F - 64.2 °F 68% 29.71 in 10.0 mi Calm Calm - N/A   Scattered Clouds
12:55 PM 75.9 °F - 63.1 °F 64% 29.70 in 10.0 mi NNW 4.6 mph - N/A   Scattered Clouds
1:15 PM 76.6 °F - 62.8 °F 62% 29.71 in 10.0 mi Calm Calm - N/A   Scattered Clouds
1:35 PM 77.9 °F - 63.1 °F 60% 29.70 in 10.0 mi Calm Calm - N/A   Mostly Cloudy
1:55 PM 77.7 °F - 61.9 °F 58% 29.71 in 10.0 mi West 3.5 mph - N/A   Scattered Clouds
2:15 PM 77.9 °F - 63.9 °F 62% 29.71 in 10.0 mi SE 8.1 mph - N/A   Scattered Clouds
2:35 PM 78.1 °F - 65.5 °F 65% 29.72 in 10.0 mi SE 5.8 mph - N/A   Scattered Clouds
2:55 PM 77.9 °F - 65.7 °F 66% 29.73 in 10.0 mi SE 9.2 mph - N/A   Mostly Cloudy
3:15 PM 78.1 °F - 65.1 °F 64% 29.73 in 10.0 mi Calm Calm - N/A   Mostly Cloudy
3:35 PM 78.6 °F - 64.4 °F 62% 29.73 in 10.0 mi Calm Calm - N/A   Scattered Clouds
3:55 PM 78.8 °F - 64.6 °F 62% 29.72 in 10.0 mi East 4.6 mph - N/A   Clear
4:15 PM 79.2 °F - 64.2 °F 60% 29.72 in 10.0 mi NE 5.8 mph - N/A   Clear
4:35 PM 80.2 °F 81.8 °F 63.7 °F 57% 29.71 in 10.0 mi NE 5.8 mph - N/A   Clear
4:55 PM 80.2 °F 81.5 °F 62.8 °F 55% 29.68 in 10.0 mi NNE 6.9 mph - N/A   Clear
5:15 PM 80.6 °F 81.5 °F 61.0 °F 51% 29.66 in 10.0 mi NE 4.6 mph - N/A   Clear
5:35 PM 80.4 °F 81.2 °F 60.4 °F 50% 29.66 in 10.0 mi NE 8.1 mph - N/A   Clear
5:55 PM 81.0 °F 80.9 °F 56.7 °F 43% 29.65 in 10.0 mi ENE 6.9 mph - N/A   Clear
6:15 PM 81.5 °F 80.8 °F 53.4 °F 38% 29.66 in 10.0 mi East 5.8 mph - N/A   Clear
6:35 PM 80.6 °F 80.8 °F 57.4 °F 45% 29.66 in 10.0 mi ENE 5.8 mph - N/A   Clear
6:55 PM 80.2 °F 81.3 °F 61.5 °F 53% 29.65 in 10.0 mi Calm Calm - N/A   Clear
7:15 PM 79.7 °F - 62.8 °F 56% 29.67 in 10.0 mi ESE 6.9 mph - N/A   Clear
7:35 PM 79.2 °F - 63.5 °F 59% 29.65 in 10.0 mi ESE 6.9 mph - N/A   Clear
7:55 PM 78.6 °F - 63.5 °F 60% 29.66 in 10.0 mi East 6.9 mph - N/A   Clear
8:15 PM 78.1 °F - 62.6 °F 59% 29.67 in 10.0 mi ESE 6.9 mph - N/A   Clear
8:35 PM 77.2 °F - 62.6 °F 61% 29.69 in 10.0 mi ESE 8.1 mph - N/A   Clear
8:55 PM 76.5 °F - 62.6 °F 62% 29.69 in 10.0 mi ESE 9.2 mph - N/A   Clear
9:15 PM 75.0 °F - 63.5 °F 67% 29.71 in 10.0 mi SE 9.2 mph - N/A   Scattered Clouds
9:35 PM 74.5 °F - 65.1 °F 72% 29.71 in 10.0 mi SE 11.5 mph - N/A   Mostly Cloudy
9:55 PM 73.2 °F - 64.2 °F 73% 29.70 in 10.0 mi SE 5.8 mph - N/A   Scattered Clouds
10:15 PM 71.1 °F - 63.0 °F 75% 29.69 in 10.0 mi SE 4.6 mph - N/A   Clear
10:35 PM 70.2 °F - 62.6 °F 77% 29.68 in 10.0 mi SE 5.8 mph - N/A   Clear
10:55 PM 69.3 °F - 62.2 °F 78% 29.69 in 10.0 mi Calm Calm - N/A   Clear
11:15 PM 69.3 °F - 62.6 °F 79% 29.69 in 10.0 mi Calm Calm - N/A   Clear
11:35 PM 69.1 °F - 62.6 °F 80% 29.70 in 10.0 mi East 4.6 mph - N/A   Clear
11:55 PM 69.4 °F - 61.7 °F 76% 29.68 in 10.0 mi East 3.5 mph - N/A   Clear